Regional Weather Roundup
Issued by NWS Green Bay, WI

Home | Current Version | Previous Version | Text Only | Print | Product List | Glossary On
Versions: 1 2 3 4 5 6 7 8 9 10 11 12 13 14 15 16 17 18 19 20 21 22 23 24 25 26 27 28 29 30 31 32 33 34 35 36 37 38 39 40 41 42 43 44 45 46 47 48 49 50
000
ASUS43 KGRB 311511
RWRGRB

NORTH-CENTRAL AND NORTHEAST WISCONSIN REGIONAL WEATHER ROUNDUP
NATIONAL WEATHER SERVICE GREEN BAY WI
1000 AM CDT FRI JUL 31 2015

WIZ005-009-010>012-018-019-311600-
NORTH CENTRAL WISCONSIN

CITY           SKY/WX    TMP DP  RH WIND       PRES   REMARKS
IRONWOOD       SUNNY     66  57  72 NW14      29.92S
MANITOWISH WTR MOSUNNY   68  55  64 NW13      29.96S
ARBOR VITAE    MOSUNNY   72  58  62 NW12G20   29.96S
EAGLE RIVER    PTSUNNY   68  54  62 NW13G20   29.94S
LAND O LAKES   MOSUNNY   68  54  60 W12       29.95R
RHINELANDER    SUNNY     71  54  54 NW10G22   29.96S
PHILLIPS       SUNNY     69  55  60 NW9G18    29.98F
ANTIGO         MOSUNNY   69  56  64 NW20G26   29.96S
TOMAHAWK       SUNNY     69  54  59 W12G20    29.98S
MERRILL        NOT AVBL
$$

WIZ013-073-311600-
NORTHEAST WISCONSIN

CITY           SKY/WX    TMP DP  RH WIND       PRES   REMARKS
IRON MOUNTAIN  SUNNY     74  55  51 NW17G25   29.88S
MARINETTE      MOSUNNY   73  57  56 NW9G16    29.88R
OCONTO         PTSUNNY   75  58  55 W10G18    29.89S
$$

WIZ017-030-035>037-045-311600-
CENTRAL WISCONSIN

CITY           SKY/WX    TMP DP  RH WIND       PRES   REMARKS
MEDFORD        SUNNY     69  56  62 NW13G28   30.00S
WAUSAU         SUNNY     74  54  49 NW14      29.96S
MOSINEE        MOSUNNY   72  55  56 W18G24    29.99S
MARSHFIELD     SUNNY     73  53  49 NW16G25   30.01S
WISC RAPIDS    SUNNY     75  51  43 NW20G26   30.00S
STEVENS POINT  SUNNY     71  53  52 W13G18    29.99R
WAUPACA        SUNNY     77  57  49 W16G25    29.96S
SHAWANO        SUNNY     76  59  56 W7        29.93S
CLINTONVILLE   SUNNY     73  55  53 NW10G17   29.94S
$$

WIZ038-039-048-051-311600-
FOX VALLEY

CITY           SKY/WX    TMP DP  RH WIND       PRES   REMARKS
NWS GREEN BAY  SUNNY     76  61  59 W13       29.91F
APPLETON       MOSUNNY   73  55  53 W16       29.95S
OSHKOSH        SUNNY     76  56  49 W14G26    29.95S
FOND DU LAC    SUNNY     78  56  46 W22G32    29.96S
$$

WIZ022-050-052-311600-
EAST CENTRAL WISCONSIN

CITY           SKY/WX    TMP DP  RH WIND       PRES   REMARKS
STURGEON BAY   MOSUNNY   73  57  56 W15       29.91S
MANITOWOC      SUNNY     78  58  49 MISG      29.91F
SHEBOYGAN      SUNNY     78  59  51 W17G23    29.93F
$$

LMZ563-521-522-541>543-311600-
LAKESHORE

STATION/POSITION TIME  TEMP    WIND        PRES    VSBY  WAVE
                       AIR SEA DIR/SP/G                  HT/PER
                 (UTC) (F)     (DEG/KT/KT) (MB)    (MI)  (FT/S)
SHEBOYGAN LKSHOR 1500   77     270/ 11/ 14 1013.3F
KEWAUNEE LKSHORE 1400   73     270/  6/ 12 1012.0F
ALGOMA MARINA    1427          330/  7/ 12   N/A
NORTHPORT PIER   1400   72     280/  6/ 17 1011.2S
N MID LAKE BUOY  1450   67 68  270/ 12/ 16 1010.5R         2/ 4
S GREEN BAY BUOY 1500   68 69  270/ 10/ 12 1013.6F
CHAMBERS ISLAND  1400   69     240/  7/ 11 1011.5S
MENOMINEE LKSHOR 1400   71     260/  9/ 12 1012.7S
$$


USA.gov is the U.S. government's official web portal to all federal, state and local government web resources and services.